Location: Bouillancy
(49.1149°N, 2.9308°E)
Time: 08:36:17
(UTC+00:00)

Aureole 2 Rocket - Pass Details

Date: 30 September 2020
Orbit: 301 x 413 km, 73.9° (Epoch: 30 October)

Event Time Altitude Azimuth Distance (km) Brightness Sun altitude
Rises 18:53:20 0° 205° (SSW) 2,375 6.2 -14.7°
Reaches altitude 10° 18:55:24 10° 207° (SSW) 1,508 5.2 -15.0°
Maximum altitude 18:58:43 77° 293° (WNW) 434 2.4 -15.5°
Drops below altitude 10° 19:01:59 10° 21° (NNE) 1,480 4.9 -16.0°
Enters shadow 19:07:50 -12° 25° (NNE) 3,937 7.1 -17.0°
